FW4381 Weather Reports


time (UTC)temp
C
wind
direction
speed
KPH
gust
KPH
rain 1hr
cm
rain 24hr
cm
rain mn
cm
humidity
%
barometer
mb
20260506103034 16 0 0.0 0.0 0.00 0.00 0.00 92 1016.4
20260506101533 16 0 0.0 1.6 0.00 0.00 0.00 92 1016.4
20260506100032 16 0 0.0 0.0 0.00 0.00 0.00 92 1016.5
20260506094532 16 0 0.0 0.0 0.00 0.00 0.00 91 1016.4
20260506093029 16 0 0.0 0.0 0.00 0.00 0.00 91 1016.4
20260506091528 16 0 0.0 0.0 0.00 0.00 0.00 91 1016.3
20260506090032 16 0 0.0 0.0 0.00 0.00 0.00 91 1016.2
20260506084539 16 0 0.0 1.6 0.00 0.00 0.00 91 1016.5
20260506083032 16 0 0.0 0.0 0.00 0.00 0.00 90 1016.3
20260506081529 16 0 0.0 0.0 0.00 0.00 0.00 90 1016.4
20260506073032 16 0 0.0 0.0 0.00 0.00 0.00 90 1016.5
20260506071532 16 0 0.0 0.0 0.00 0.00 0.00 89 1016.6
20260506061528 18 0 0.0 0.0 0.00 0.00 0.00 87 1016.7
20260506044540 18 217 0.0 9.7 0.00 0.00 0.00 85 1017.6
20260506043030 18 231 3.2 8.0 0.00 0.00 0.00 85 1017.7
20260506041530 18 232 3.2 8.0 0.00 0.00 0.00 85 1017.8
20260506040031 18 218 1.6 8.0 0.00 0.00 0.00 85 1017.9
20260506034528 18 214 1.6 8.0 0.00 0.00 0.00 84 1017.9
20260506033035 18 221 4.8 12.9 0.00 0.00 0.00 84 1017.8
20260506031536 19 221 1.6 11.3 0.00 0.00 0.00 84 1018.0
20260506030050 19 202 6.4 16.1 0.00 0.00 0.00 84 1018.0
20260506024542 19 235 6.4 12.9 0.00 0.00 0.00 84 1017.9
20260506023030 19 220 6.4 12.9 0.00 0.00 0.00 84 1018.0
20260506021528 19 223 8.0 16.1 0.00 0.00 0.00 84 1018.0
20260506020033 19 219 4.8 12.9 0.00 0.00 0.00 85 1017.9
20260506014539 19 216 3.2 14.5 0.00 0.00 0.00 86 1017.8
20260506013032 19 200 6.4 11.3 0.00 0.00 0.00 85 1017.7
20260506011537 19 196 6.4 11.3 0.00 0.00 0.00 84 1017.7
20260506010031 19 227 4.8 12.9 0.00 0.00 0.00 83 1017.7
20260506004544 20 228 4.8 12.9 0.00 0.00 0.00 81 1017.7
20260506003039 20 237 4.8 12.9 0.00 0.00 0.00 80 1017.7
20260506001531 20 233 4.8 12.9 0.00 0.00 0.00 79 1017.7
20260506000030 20 225 4.8 16.1 0.00 0.00 0.00 78 1017.6
20260505234534 20 237 4.8 12.9 0.00 0.00 0.00 77 1017.3
20260505233029 21 226 6.4 17.7 0.00 0.00 0.00 75 1017.5
20260505231529 21 248 9.7 22.5 0.00 0.00 0.00 75 1017.4
20260505230042 21 245 9.7 25.7 0.00 0.00 0.00 75 1017.3
20260505224535 21 198 4.8 22.5 0.00 0.00 0.00 75 1017.4
20260505223029 21 246 8.0 19.3 0.00 0.00 0.00 74 1017.4
20260505221532 21 203 8.0 19.3 0.00 0.00 0.00 75 1017.4
20260505220040 21 244 11.3 32.2 0.00 0.00 0.00 74 1017.3
20260505214534 21 244 6.4 22.5 0.00 0.00 0.00 72 1017.1
20260505213035 21 217 6.4 25.7 0.00 0.00 0.00 74 1017.3
20260505211528 22 225 9.7 22.5 0.00 0.00 0.00 72 1017.4
20260505210027 22 213 6.4 20.9 0.00 0.00 0.00 73 1017.5
20260505204535 22 244 11.3 22.5 0.00 0.00 0.00 73 1017.3
20260505203033 22 220 9.7 32.2 0.00 0.00 0.00 71 1017.4
20260505201533 22 259 8.0 19.3 0.00 0.00 0.00 69 1017.8
20260505200028 22 290 11.3 30.6 0.00 0.00 0.00 71 1017.9
20260505194527 22 209 14.5 25.7 0.00 0.00 0.00 72 1018.1
20260505193035 22 207 8.0 30.6 0.00 0.00 0.00 71 1018.3
20260505191528 23 240 4.8 20.9 0.00 0.00 0.00 69 1018.3
20260505190036 22 231 11.3 27.4 0.00 0.00 0.00 73 1018.4
20260505184531 22 244 9.7 22.5 0.00 0.00 0.00 71 1018.4
20260505183030 22 223 14.5 22.5 0.00 0.00 0.00 72 1018.6
20260505181532 22 360 9.7 25.7 0.00 0.00 0.00 72 1018.5
20260505180037 22 200 14.5 24.1 0.00 0.00 0.00 73 1018.6
20260505174530 23 235 8.0 32.2 0.00 0.00 0.00 70 1018.7
20260505173027 22 237 3.2 29.0 0.00 0.00 0.00 71 1018.7
20260505171530 22 231 11.3 25.7 0.00 0.00 0.00 70 1018.7
20260505170031 23 216 14.5 27.4 0.00 0.00 0.00 68 1018.8
20260505164534 23 230 16.1 27.4 0.00 0.00 0.00 68 1019.0
20260505163036 23 219 12.9 24.1 0.00 0.00 0.00 67 1018.8
20260505161528 22 257 14.5 29.0 0.00 0.00 0.00 68 1018.9
20260505153039 22 254 8.0 17.7 0.00 0.00 0.00 63 1019.0
20260505151530 22 255 4.8 12.9 0.00 0.00 0.00 64 1018.9
20260505124531 20 229 4.8 14.5 0.00 0.00 0.00 82 1019.1
20260505123042 19 235 3.2 11.3 0.00 0.00 0.00 85 1019.0
20260505121533 18 250 4.8 12.9 0.00 0.00 0.00 87 1019.1
20260505120043 18 223 3.2 9.7 0.00 0.00 0.00 88 1018.9
20260505114531 17 209 4.8 8.0 0.00 0.00 0.00 90 1018.9
20260505113031 16 0 0.0 0.0 0.00 0.00 0.00 92 1018.7
20260505111533 14 0 0.0 0.0 0.00 0.00 0.00 91 1018.6